Location: Newark
(33.6439°N, 114.9881°W)
Time: 05:03:35
(UTC+00:00)

A-11 Canister half - Pass Details

Date: 31 August 2019
Orbit: 1527 x 1682 km, 47.3° (Epoch: 13 October)

Event Time Altitude Azimuth Distance (km) Brightness Sun altitude
Rises 19:23:57 0° 281° (W) 4,836 11.5 64.6°
Reaches altitude 10° 19:27:25 10° 289° (WNW) 3,872 11.1 64.7°
Maximum altitude 19:36:28 38° 355° (N) 2,373 10.2 64.9°
Drops below altitude 10° 19:45:42 10° 61° (ENE) 3,943 11.1 64.8°
Sets 19:49:16 0° 69° (ENE) 4,934 11.5 64.8°
